TimeCDT,TemperatureF,Dew PointF,Humidity,Sea Level PressureIn,VisibilityMPH,Wind Direction,Wind SpeedMPH,Gust SpeedMPH,PrecipitationIn,Events,Conditions,WindDirDegrees,DateUTC
12:53 AM,77.0,60.1,56,29.67,10.0,SSW,15.0,23.0,N/A,,Clear,200,2013-09-19 05:53:00
1:53 AM,77.0,61.0,58,29.67,10.0,SSW,11.5,21.9,N/A,,Clear,200,2013-09-19 06:53:00
2:53 AM,75.0,61.0,62,29.68,10.0,SW,5.8,-,N/A,,Clear,230,2013-09-19 07:53:00
3:53 AM,69.1,62.1,78,29.69,10.0,Calm,Calm,-,N/A,,Clear,0,2013-09-19 08:53:00
4:53 AM,66.9,62.1,84,29.68,10.0,Calm,Calm,-,N/A,,Partly Cloudy,0,2013-09-19 09:53:00
5:49 AM,66.2,64.4,94,29.77,1.8,SW,9.2,-,0.16,Rain,Heavy Rain,220,2013-09-19 10:49:00
5:53 AM,66.9,64.0,90,29.70,2.0,WSW,6.9,-,0.19,Rain,Rain,250,2013-09-19 10:53:00
6:10 AM,66.2,64.4,94,29.77,5.0,Calm,Calm,-,0.06,Rain,Light Rain,0,2013-09-19 11:10:00
6:53 AM,64.9,62.1,90,29.69,10.0,NNE,5.8,-,0.10,,Partly Cloudy,30,2013-09-19 11:53:00
7:53 AM,64.9,62.1,90,29.75,10.0,NW,4.6,-,0.01,,Mostly Cloudy,320,2013-09-19 12:53:00
8:53 AM,64.9,61.0,87,29.79,10.0,NNW,10.4,-,N/A,,Clear,340,2013-09-19 13:53:00
9:53 AM,66.9,62.1,84,29.83,10.0,NW,5.8,-,0.00,Rain,Light Rain,310,2013-09-19 14:53:00
10:53 AM,69.1,62.1,78,29.84,10.0,NNW,13.8,-,0.00,,Scattered Clouds,340,2013-09-19 15:53:00
11:53 AM,69.1,62.1,78,29.88,10.0,NNW,12.7,20.7,N/A,,Clear,340,2013-09-19 16:53:00
12:53 PM,66.9,59.0,76,29.91,10.0,NNW,18.4,26.5,0.00,Rain,Light Rain,340,2013-09-19 17:53:00
1:53 PM,71.1,55.0,57,29.89,10.0,North,25.3,33.4,0.01,,Clear,10,2013-09-19 18:53:00
2:53 PM,73.9,53.1,48,29.88,10.0,North,18.4,31.1,N/A,,Clear,360,2013-09-19 19:53:00
3:53 PM,73.0,52.0,48,29.91,10.0,NNE,15.0,20.7,N/A,,Scattered Clouds,20,2013-09-19 20:53:00
4:53 PM,73.9,52.0,46,29.91,10.0,NNE,15.0,21.9,N/A,,Mostly Cloudy,20,2013-09-19 21:53:00
5:53 PM,73.0,51.1,46,29.91,10.0,North,15.0,20.7,N/A,,Clear,10,2013-09-19 22:53:00
6:53 PM,70.0,50.0,49,29.94,10.0,NNE,8.1,-,N/A,,Scattered Clouds,30,2013-09-19 23:53:00
7:53 PM,66.9,50.0,54,29.98,10.0,NNE,9.2,-,N/A,,Mostly Cloudy,20,2013-09-20 00:53:00
8:53 PM,62.1,53.1,72,30.03,10.0,North,9.2,-,N/A,,Clear,350,2013-09-20 01:53:00
9:53 PM,60.1,53.1,78,30.07,10.0,North,9.2,-,N/A,,Clear,360,2013-09-20 02:53:00
10:53 PM,55.9,53.1,90,30.09,10.0,Calm,Calm,-,N/A,,Clear,0,2013-09-20 03:53:00
11:53 PM,55.0,53.1,93,30.10,10.0,Calm,Calm,-,N/A,,Clear,0,2013-09-20 04:53:00